(144261) = 1999 CF129 = 2001 SO334 = 2004 CX93 = 2005 NN

Discovered at Catalina on 2004-02-11 by CSS.

Orbit

Orbit type: Main Belt

Note: WebGL enabled browser required.

epoch2023-09-13.0
epoch JD2460200.5
perihelion date2023-07-12.84915
perihelion JD2460138.34915
argument of perihelion (°)124.57548
ascending node (°)154.31043
inclination (°)13.80224
eccentricity0.0739613
perihelion distance (AU)2.5129171
Tisserand w.r.t. Jupiter3.3
ΔV w.r.t. Earth (km/sec)10.8
semimajor axis (AU)2.7136200
mean anomaly (°)13.70337
mean daily motion (°/day)0.22048560
aphelion distance (AU)2.914
period (years)4.47
P-vector [x]0.16477394
P-vector [y]-0.96495045
P-vector [z]-0.20425516
Q-vector [x]0.98089446
Q-vector [y]0.18202702
Q-vector [z]-0.06864558
absolute magnitude15.74
phase slope0.15
uncertainty0
referenceMPEC 2024-A34
observations used593
oppositions20
arc length (days)10328
first opposition used1995
last opposition used2023
residual rms (arc-secs)0.78
perturbers coarse indicatorM-v
perturbers precise indicator003Ek
first observation date used1995-03-10.0
last observation date used2023-06-19.0
computer nameMPCLINUX
JD of orbit computation2456819.640469
perihelion JD uncertainty (days)2.6971E-04
argument of perihelion uncertainty (°)6.3208E-05
ascending node uncertainty (°)1.9977E-05
inclination uncertainty (°)1.0725E-05
eccentricity uncertainty 6.5687E-08
perihelion distance uncertainty (AU)1.8317E-07
Minimum Orbit Intersection Distances (in AU)
for orbit epoch: 2460200.5, reference: E2024-A34
Mercury2.07519
Venus1.80854
Earth1.52258
Mars1.08409
Jupiter2.28037
Saturn6.21917
Uranus15.6397
Neptune27.0894

Observations

607 total observations over interval: 1995 03 10.13127 – 2023 06 19.10942
These data are available for download (format description).

Date (UT) J2000 RA J2000 Dec Magn Location Ref
1995 03 10.13127 09 33 30.35 +13 02 26.4   691 – Steward Observatory, Kitt Peak-Spacewatch MPS 138635
1995 03 10.15771 09 33 29.21 +13 02 41.4 19.9 V 691 – Steward Observatory, Kitt Peak-Spacewatch MPS 138635
1995 03 10.17996 09 33 28.36 +13 02 52.4   691 – Steward Observatory, Kitt Peak-Spacewatch MPS 138635
1999 02 06.41336 06 37 38.16 +09 46 09.0   568 – Maunakea MPS 4190
1999 02 06.42350 06 37 37.83 +09 46 12.9   568 – Maunakea MPS 4190
1999 02 07.33696 06 37 11.83 +09 52 17.3   568 – Maunakea MPS 4190
2000 05 03.29214 13 07 17.12 +10 02 45.3 19.6   704 – Lincoln Laboratory ETS, New Mexico MPS 138635
2000 05 03.30463 13 07 16.67 +10 02 46.9 19.4   704 – Lincoln Laboratory ETS, New Mexico MPS 138635
2000 05 03.31719 13 07 16.19 +10 02 50.0 19.4   704 – Lincoln Laboratory ETS, New Mexico MPS 138635
2001 07 20.32739 21 43 07.77 -05 49 47.1 19.2 R 699 – Lowell Observatory-LONEOS MPS 138635
2001 07 20.35625 21 43 06.84 -05 49 59.2   699 – Lowell Observatory-LONEOS MPS 138635
2001 07 20.38509 21 43 05.87 -05 50 10.4   699 – Lowell Observatory-LONEOS MPS 138635
2001 07 20.41396 21 43 04.94 -05 50 22.2   699 – Lowell Observatory-LONEOS MPS 138635
2001 08 14.35454 21 25 59.44 -09 24 58.5 20.1   608 – Haleakala-AMOS MPS 138635
2001 08 14.36565 21 25 58.92 -09 25 04.8 19.5   608 – Haleakala-AMOS MPS 138635
2001 08 14.37632 21 25 58.49 -09 25 11.2 19.8   608 – Haleakala-AMOS MPS 138635
2001 09 20.11347 21 06 27.87 -14 49 40.8 19.1   704 – Lincoln Laboratory ETS, New Mexico MPS 57189
2001 09 20.12775 21 06 27.69 -14 49 45.8 19.6   704 – Lincoln Laboratory ETS, New Mexico MPS 57189
2001 09 20.14203 21 06 27.55 -14 49 52.0 19.8   704 – Lincoln Laboratory ETS, New Mexico MPS 57189
2001 09 20.15639 21 06 27.40 -14 49 57.3 19.2   704 – Lincoln Laboratory ETS, New Mexico MPS 57189
2001 09 20.17063 21 06 27.22 -14 50 03.6 19.5   704 – Lincoln Laboratory ETS, New Mexico MPS 57189
2001 09 23.27812 21 06 07.75 -15 09 34.3 20.5 V 291 – LPL/Spacewatch II MPS 57189
2001 09 23.29528 21 06 07.63 -15 09 40.5 20.3 V 291 – LPL/Spacewatch II MPS 57189
2001 09 23.30352 21 06 07.60 -15 09 43.6 20.2 V 291 – LPL/Spacewatch II MPS 57189
2002 12 13.32801 04 07 55.87 +00 14 35.9 20.1   644 – Palomar Mountain/NEAT MPS 138635
2002 12 13.35406 04 07 54.62 +00 14 37.5 20.0   644 – Palomar Mountain/NEAT MPS 138635
2002 12 13.39650 04 07 52.57 +00 14 40.9 20.4   644 – Palomar Mountain/NEAT MPS 138635
2004 02 11.34588 10 19 33.39 +08 25 38.4 20.1 V 703 – Catalina Sky Survey MPS 100208
2004 02 11.35964 10 19 32.68 +08 25 46.4 19.1 V 703 – Catalina Sky Survey MPS 100208
2004 02 11.37346 10 19 32.03 +08 25 52.8 19.7 V 703 – Catalina Sky Survey MPS 100208
2004 02 11.38477 10 19 31.54 +08 25 58.8 19.2   644 – Palomar Mountain/NEAT MPS 100208
2004 02 11.38736 10 19 31.42 +08 26 00.1 20.4 V 703 – Catalina Sky Survey MPS 100208
2004 02 11.40845 10 19 30.44 +08 26 11.2 19.3   644 – Palomar Mountain/NEAT MPS 100208
2004 02 11.43456 10 19 29.24 +08 26 25.0 19.4   644 – Palomar Mountain/NEAT MPS 100208
2004 02 18.30437 10 14 09.34 +09 28 26.4 19.3   704 – Lincoln Laboratory ETS, New Mexico MPS 100208
2004 02 18.31701 10 14 08.65 +09 28 32.3 19.4   704 – Lincoln Laboratory ETS, New Mexico MPS 100208
2004 02 18.33032 10 14 08.13 +09 28 39.3 19.6   704 – Lincoln Laboratory ETS, New Mexico MPS 100208
2004 02 18.34209 10 14 07.46 +09 28 46.4 19.6   704 – Lincoln Laboratory ETS, New Mexico MPS 100208
2004 02 22.34384 10 10 54.91 +10 05 46.9 19.7 V 691 – Steward Observatory, Kitt Peak-Spacewatch MPS 100208
2004 02 22.37167 10 10 53.53 +10 06 02.2 19.8 V 691 – Steward Observatory, Kitt Peak-Spacewatch MPS 100208
2004 02 22.39944 10 10 52.14 +10 06 17.7 19.7 V 691 – Steward Observatory, Kitt Peak-Spacewatch MPS 100208
2004 02 26.28831 10 07 45.59 +10 42 14.1 19.9   704 – Lincoln Laboratory ETS, New Mexico MPS 100208
2004 02 26.29953 10 07 45.05 +10 42 22.2 19.4   704 – Lincoln Laboratory ETS, New Mexico MPS 100208
2004 02 26.31069 10 07 44.51 +10 42 28.6 20.1   704 – Lincoln Laboratory ETS, New Mexico MPS 100208
2004 02 26.32185 10 07 43.88 +10 42 34.0 19.7   704 – Lincoln Laboratory ETS, New Mexico MPS 100208
2005 06 24.29536 17 17 45.46 -01 45 33.6 18.8   644 – Palomar Mountain/NEAT MPS 138492
2005 06 24.32385 17 17 44.04 -01 45 39.4 19.0   644 – Palomar Mountain/NEAT MPS 138492
2005 06 24.37506 17 17 41.51 -01 45 49.5 18.7   644 – Palomar Mountain/NEAT MPS 138492
2005 06 29.27500 17 13 56.52 -02 04 39.3 19.0   644 – Palomar Mountain/NEAT MPS 137516
2005 06 29.27872 17 13 56.35 -02 04 40.4 18.8   644 – Palomar Mountain/NEAT MPS 137516
2005 06 29.29616 17 13 55.55 -02 04 44.7 19.0   644 – Palomar Mountain/NEAT MPS 137516
2005 06 29.30147 17 13 55.32 -02 04 46.2 18.9   644 – Palomar Mountain/NEAT MPS 137516
2005 06 29.33515 17 13 53.77 -02 04 55.0 18.9   644 – Palomar Mountain/NEAT MPS 137516
2005 06 29.34141 17 13 53.49 -02 04 56.5 18.9   644 – Palomar Mountain/NEAT MPS 137516
2005 07 02.27988 17 11 48.73 -02 18 29.0 18.9 V 703 – Catalina Sky Survey MPS 137516
2005 07 02.28787 17 11 48.30 -02 18 30.5 18.6 V 703 – Catalina Sky Survey MPS 137516
2005 07 02.29590 17 11 48.01 -02 18 34.4 19.0 V 703 – Catalina Sky Survey MPS 137516
2005 07 02.30389 17 11 47.76 -02 18 36.3 18.6 V 703 – Catalina Sky Survey MPS 137516
2005 07 03.39917 17 11 03.47 -02 24 01.6 20.1   608 – Haleakala-AMOS MPS 137516
2005 07 03.40976 17 11 03.04 -02 24 04.7 19.8   608 – Haleakala-AMOS MPS 137516
2005 07 03.42049 17 11 02.60 -02 24 08.0 20.1   608 – Haleakala-AMOS MPS 137516
2005 07 04.34765 17 10 26.14 -02 28 58.5 18.2   644 – Palomar Mountain/NEAT MPS 137516
2005 07 04.36956 17 10 25.26 -02 29 03.8 19.0   644 – Palomar Mountain/NEAT MPS 137516
2005 07 04.39293 17 10 24.32 -02 29 11.1 19.1   644 – Palomar Mountain/NEAT MPS 137516
2006 08 28.37076 01 48 57.68 -00 19 57.4 21.1   705 – Apache Point MPS 195384
2006 08 28.37160 01 48 57.68 -00 19 57.8 20.3 V 705 – Apache Point MPS 195384
2006 09 18.31029 01 44 01.46 -03 19 11.5 19.6 V 703 – Catalina Sky Survey MPS 179322
2006 09 18.31675 01 44 01.17 -03 19 15.3 19.8 V 703 – Catalina Sky Survey MPS 179322
2006 09 18.32319 01 44 01.10 -03 19 19.8 19.9 V 703 – Catalina Sky Survey MPS 179322
2006 09 18.32968 01 44 00.81 -03 19 23.2 19.6 V 703 – Catalina Sky Survey MPS 179322
2006 09 21.36821 01 42 28.31 -03 48 17.4 19.3 R 699 – Lowell Observatory-LONEOS MPS 179322
2006 09 21.39016 01 42 27.65 -03 48 30.6   699 – Lowell Observatory-LONEOS MPS 179322
2006 09 21.41210 01 42 26.84 -03 48 41.5   699 – Lowell Observatory-LONEOS MPS 179322
2006 09 21.43405 01 42 26.12 -03 48 56.0   699 – Lowell Observatory-LONEOS MPS 179322
2006 09 26.35107 01 39 34.20 -04 35 56.9 19.8 V 703 – Catalina Sky Survey MPS 181026
2006 09 26.35941 01 39 33.73 -04 36 02.0 19.3 V 703 – Catalina Sky Survey MPS 181026
2006 09 26.36774 01 39 33.55 -04 36 06.0 19.1 V 703 – Catalina Sky Survey MPS 181026
2006 09 26.37610 01 39 33.22 -04 36 10.6 19.5 V 703 – Catalina Sky Survey MPS 181026
2006 09 29.35253 01 37 37.46 -05 04 26.7 18.9 R 699 – Lowell Observatory-LONEOS MPS 181026
2006 09 29.37445 01 37 36.64 -05 04 38.6   699 – Lowell Observatory-LONEOS MPS 181026
2006 09 29.39637 01 37 35.65 -05 04 50.8   699 – Lowell Observatory-LONEOS MPS 181026
2006 09 29.41829 01 37 34.80 -05 05 02.5   699 – Lowell Observatory-LONEOS MPS 181026
2006 09 30.30387 01 36 58.94 -05 13 22.6 19.9   704 – Lincoln Laboratory ETS, New Mexico MPS 182662
2006 09 30.31612 01 36 58.43 -05 13 28.9 19.5   704 – Lincoln Laboratory ETS, New Mexico MPS 182662
2006 09 30.32837 01 36 57.87 -05 13 37.1 19.1   704 – Lincoln Laboratory ETS, New Mexico MPS 182662
2006 09 30.34061 01 36 57.48 -05 13 43.0 19.8   704 – Lincoln Laboratory ETS, New Mexico MPS 182662
2006 10 12.29088 01 28 07.46 -06 59 17.2 19.1 R 644 – Palomar Mountain/NEAT MPS 182932
2006 10 12.31373 01 28 06.35 -06 59 28.5 19.1 R 644 – Palomar Mountain/NEAT MPS 182932
2006 10 12.33578 01 28 05.30 -06 59 39.1 19.3 R 644 – Palomar Mountain/NEAT MPS 182932
2009 03 19.31255 14 05 40.09 +02 35 44.5 19.9 V 703 – Catalina Sky Survey MPS 282286
2009 03 19.32466 14 05 39.76 +02 35 50.4 19.5 V 703 – Catalina Sky Survey MPS 282286
